When you browse on this site, cookies collect data to enhance your experience and personalize the content and advertising you see.
Visit our Privacy Policy to learn more. By continuing to use the site, you agree to this use of cookies and data.
  • In Latvia
  • List of Countries
  • For 7 days
  • Water Temperature
  • Satellite Maps
  • Weather Map
  • Weather Widgets
  • user-avatar
    Login

    Hourly Weather Las Vegas

    Today, 17 July, Wednesday

    Time Temperature Precipitation Wind Pressure Humidity
    00:00 +30°C° 0 mm 3 mps 705 mmHg 18%
    01:00 +29°C° 0 mm 3 mps 705 mmHg 20%
    02:00 +28°C° 0 mm 3 mps 705 mmHg 22%
    03:00 +27°C° 0 mm 3 mps 705 mmHg 24%
    04:00 +28°C° 0 mm 5 mps 705 mmHg 26%
    05:00 +29°C° 0 mm 4 mps 706 mmHg 23%
    06:00 +32°C° 0 mm 4 mps 707 mmHg 20%
    07:00 +34°C° 0 mm 3 mps 708 mmHg 18%
    08:00 +36°C° 0 mm 4 mps 708 mmHg 14%
    09:00 +39°C° 0 mm 6 mps 708 mmHg 11%
    10:00 +41°C° 0 mm 7 mps 709 mmHg 8%
    11:00 +43°C° 0 mm 7 mps 708 mmHg 7%
    12:00 +44°C° 0 mm 8 mps 708 mmHg 6%
    13:00 +45°C° 0 mm 8 mps 708 mmHg 5%
    14:00 +45°C° 0 mm 8 mps 707 mmHg 5%
    15:00 +45°C° 0 mm 9 mps 707 mmHg 5%
    16:00 +44°C° 0 mm 9 mps 706 mmHg 5%
    17:00 +43°C° 0 mm 8 mps 706 mmHg 6%
    18:00 +40°C° 0 mm 6 mps 706 mmHg 7%
    19:00 +37°C° 0 mm 5 mps 706 mmHg 8%
    20:00 +35°C° 0 mm 4 mps 706 mmHg 9%
    21:00 +34°C° 0 mm 3 mps 706 mmHg 10%
    22:00 +31°C° 0 mm 2 mps 706 mmHg 11%
    23:00 +30°C° 0 mm 2 mps 707 mmHg 13%

    Tomorrow, 18 July, Thursday

    Time Temperature Precipitation Wind Pressure Humidity
    00:00 +29°C° 0 mm 2 mps 707 mmHg 15%
    01:00 +28°C° 0 mm 2 mps 707 mmHg 17%
    02:00 +28°C° 0 mm 2 mps 707 mmHg 20%
    03:00 +27°C° 0 mm 2 mps 707 mmHg 22%
    04:00 +26°C° 0 mm 2 mps 707 mmHg 25%
    05:00 +28°C° 0 mm 2 mps 707 mmHg 23%
    06:00 +30°C° 0 mm 2 mps 708 mmHg 21%
    07:00 +32°C° 0 mm 2 mps 709 mmHg 19%
    08:00 +35°C° 0 mm 3 mps 709 mmHg 17%
    09:00 +37°C° 0 mm 3 mps 709 mmHg 14%
    10:00 +40°C° 0 mm 4 mps 709 mmHg 12%
    11:00 +41°C° 0 mm 5 mps 709 mmHg 10%
    12:00 +44°C° 0 mm 6 mps 708 mmHg 9%
    13:00 +45°C° 0 mm 7 mps 708 mmHg 7%
    14:00 +45°C° 0 mm 7 mps 707 mmHg 7%
    15:00 +45°C° 0 mm 7 mps 707 mmHg 6%
    16:00 +45°C° 0 mm 7 mps 706 mmHg 6%
    17:00 +43°C° 0 mm 7 mps 706 mmHg 7%
    18:00 +40°C° 0 mm 6 mps 706 mmHg 8%
    19:00 +37°C° 0 mm 5 mps 705 mmHg 9%
    20:00 +36°C° 0 mm 4 mps 705 mmHg 10%
    21:00 +34°C° 0 mm 4 mps 706 mmHg 11%
    22:00 +33°C° 0 mm 3 mps 706 mmHg 12%
    23:00 +31°C° 0 mm 3 mps 706 mmHg 14%

    Day after tomorrow, 19 July, Friday

    Time Temperature Precipitation Wind Pressure Humidity
    00:00 +30°C° 0 mm 2 mps 706 mmHg 15%
    01:00 +29°C° 0 mm 2 mps 705 mmHg 16%
    02:00 +28°C° 0 mm 2 mps 705 mmHg 18%
    03:00 +27°C° 0 mm 2 mps 705 mmHg 19%
    04:00 +26°C° 0 mm 2 mps 705 mmHg 21%
    05:00 +28°C° 0 mm 2 mps 706 mmHg 19%
    06:00 +30°C° 0 mm 1 mps 706 mmHg 17%
    07:00 +32°C° 0 mm 1 mps 707 mmHg 15%
    08:00 +34°C° 0 mm 2 mps 707 mmHg 14%
    09:00 +36°C° 0 mm 2 mps 707 mmHg 12%
    10:00 +38°C° 0 mm 3 mps 707 mmHg 10%
    11:00 +41°C° 0 mm 4 mps 707 mmHg 9%
    12:00 +42°C° 0 mm 5 mps 707 mmHg 7%
    13:00 +44°C° 0 mm 6 mps 706 mmHg 6%
    14:00 +44°C° 0 mm 7 mps 706 mmHg 5%
    15:00 +44°C° 0 mm 7 mps 705 mmHg 5%
    16:00 +44°C° 0 mm 8 mps 705 mmHg 5%
    17:00 +41°C° 0 mm 7 mps 704 mmHg 6%
    18:00 +39°C° 0 mm 6 mps 704 mmHg 6%
    19:00 +36°C° 0 mm 5 mps 704 mmHg 7%
    20:00 +35°C° 0 mm 4 mps 704 mmHg 8%
    21:00 +33°C° 0 mm 4 mps 705 mmHg 10%
    22:00 +31°C° 0 mm 3 mps 705 mmHg 11%
    23:00 +30°C° 0 mm 3 mps 705 mmHg 13%

    20 July, Saturday

    Time Temperature Precipitation Wind Pressure Humidity
    00:00 +29°C° 0 mm 2 mps 705 mmHg 14%
    01:00 +28°C° 0 mm 2 mps 704 mmHg 16%
    02:00 +27°C° 0 mm 2 mps 705 mmHg 17%
    03:00 +26°C° 0 mm 2 mps 705 mmHg 19%
    04:00 +25°C° 0 mm 1 mps 705 mmHg 20%
    05:00 +28°C° 0 mm 1 mps 705 mmHg 18%
    06:00 +30°C° 0 mm 1 mps 706 mmHg 17%
    07:00 +32°C° 0 mm 1 mps 707 mmHg 15%
    08:00 +35°C° 0 mm 2 mps 707 mmHg 13%
    09:00 +36°C° 0 mm 2 mps 707 mmHg 12%
    10:00 +38°C° 0 mm 2 mps 708 mmHg 11%
    11:00 +40°C° 0 mm 3 mps 707 mmHg 10%
    12:00 +42°C° 0 mm 3 mps 707 mmHg 8%
    13:00 +44°C° 0 mm 4 mps 707 mmHg 7%
    14:00 +44°C° 0 mm 4 mps 706 mmHg 7%
    15:00 +45°C° 0 mm 5 mps 706 mmHg 7%
    16:00 +45°C° 0 mm 6 mps 705 mmHg 6%
    17:00 +42°C° 0 mm 5 mps 705 mmHg 8%
    18:00 +40°C° 0 mm 5 mps 705 mmHg 9%
    19:00 +37°C° 0 mm 4 mps 705 mmHg 10%
    20:00 +36°C° 0 mm 4 mps 705 mmHg 11%
    21:00 +34°C° 0 mm 3 mps 706 mmHg 12%
    22:00 +33°C° 0 mm 3 mps 706 mmHg 14%
    23:00 +31°C° 0 mm 3 mps 706 mmHg 15%

    21 July, Sunday

    Time Temperature Precipitation Wind Pressure Humidity
    00:00 +30°C° 0 mm 2 mps 706 mmHg 16%
    01:00 +30°C° 0 mm 2 mps 706 mmHg 16%
    02:00 +29°C° 0 mm 1 mps 706 mmHg 18%
    03:00 +28°C° 0 mm 1 mps 706 mmHg 19%
    04:00 +27°C° 0 mm 1 mps 706 mmHg 21%
    05:00 +29°C° 0 mm 1 mps 706 mmHg 20%
    06:00 +31°C° 0 mm 1 mps 707 mmHg 18%
    07:00 +33°C° 0 mm 1 mps 708 mmHg 17%
    08:00 +36°C° 0 mm 2 mps 708 mmHg 15%
    09:00 +37°C° 0 mm 2 mps 708 mmHg 13%
    10:00 +39°C° 0 mm 2 mps 709 mmHg 12%
    11:00 +42°C° 0 mm 3 mps 708 mmHg 11%
    12:00 +43°C° 0 mm 3 mps 708 mmHg 10%
    13:00 +44°C° 0 mm 4 mps 708 mmHg 9%
    14:00 +45°C° 0 mm 4 mps 707 mmHg 9%
    15:00 +45°C° 0 mm 4 mps 707 mmHg 9%
    16:00 +45°C° 0 mm 4 mps 707 mmHg 9%
    17:00 +45°C° 0 mm 5 mps 707 mmHg 10%
    18:00 +42°C° 0 mm 5 mps 707 mmHg 12%
    19:00 +40°C° 0 mm 5 mps 707 mmHg 13%
    20:00 +38°C° 0 mm 4 mps 707 mmHg 15%
    21:00 +37°C° 0 mm 4 mps 707 mmHg 16%
    22:00 +36°C° 0 mm 3 mps 707 mmHg 18%
    23:00 +35°C° 0 mm 2 mps 707 mmHg 21%

    22 July, Monday

    Time Temperature Precipitation Wind Pressure Humidity
    00:00 +34°C° 0 mm 2 mps 707 mmHg 25%
    01:00 +32°C° 0 mm 1 mps 707 mmHg 29%
    02:00 +31°C° 0.1 mm 1 mps 707 mmHg 31%
    03:00 +31°C° 0.1 mm 1 mps 707 mmHg 33%
    04:00 +31°C° 0.1 mm 1 mps 708 mmHg 35%
    05:00 +32°C° 0 mm 1 mps 708 mmHg 33%
    06:00 +34°C° 0 mm 2 mps 709 mmHg 31%
    07:00 +35°C° 0 mm 2 mps 709 mmHg 30%
    08:00 +36°C° 0 mm 2 mps 710 mmHg 29%
    09:00 +37°C° 0 mm 2 mps 710 mmHg 28%
    10:00 +37°C° 0 mm 3 mps 710 mmHg 28%
    11:00 +38°C° 0 mm 4 mps 710 mmHg 26%
    12:00 +40°C° 0 mm 6 mps 710 mmHg 24%
    13:00 +41°C° 0 mm 7 mps 709 mmHg 23%
    14:00 +41°C° 0 mm 5 mps 709 mmHg 22%
    15:00 +40°C° 0 mm 3 mps 709 mmHg 21%
    16:00 +41°C° 0 mm 2 mps 709 mmHg 20%
    17:00 +39°C° 0 mm 2 mps 709 mmHg 24%
    18:00 +37°C° 0 mm 2 mps 709 mmHg 28%
    19:00 +36°C° 0 mm 3 mps 709 mmHg 31%
    20:00 +35°C° 0.1 mm 3 mps 709 mmHg 34%
    21:00 +34°C° 0.1 mm 2 mps 709 mmHg 37%
    22:00 +32°C° 0.1 mm 2 mps 709 mmHg 40%
    23:00 +31°C° 0.1 mm 1 mps 710 mmHg 42%
    Show more